• Processing (Info)

  • MPEC 2012-R32 : 2012 RN6

    The following Minor Planet Electronic Circular may be linked-to from your own Web pages, but must not otherwise be redistributed electronically.

    A form allowing access to any MPEC is at the bottom of this page.


    Read MPEC 2012-R31 Read MPEC 2012-R33


    M.P.E.C. 2012-R32                                Issued 2012 Sept. 14, 00:55 UT
    
         The Minor Planet Electronic Circulars contain information on unusual
             minor planets and routine data on comets.  They are published
       on behalf of Commission 20 of the International Astronomical Union by the
              Minor Planet Center, Smithsonian Astrophysical Observatory,
                              Cambridge, MA 02138, U.S.A.
    
                 Prepared using the Tamkin Foundation Computer Network
    
                                  MPC@CFA.HARVARD.EDU
                URL https://www.minorplanetcenter.net/    ISSN 1523-6714
    
                                       2012 RN6
    
    Observations:
         K12R06N*QC2012 09 11.59116 22 57 40.24 -27 32 25.1          18.6 VrER032E12
         K12R06N QC2012 09 11.60181 22 57 38.37 -27 31 39.2          18.4 VrER032E12
         K12R06N QC2012 09 11.61254 22 57 36.48 -27 30 52.8          18.3 VrER032E12
         K12R06N QC2012 09 11.61821 22 57 35.50 -27 30 28.6          18.4 VrER032E12
         K12R06N QC2012 09 11.62322 22 57 34.65 -27 30 06.9          18.4 VrER032E12
         K12R06N QC2012 09 11.69912 22 57 21.77 -27 24 39.3          18.4 VrER032E12
         K12R06N QC2012 09 11.69982 22 57 21.68 -27 24 36.1          18.5 VrER032E12
         K12R06N QC2012 09 11.70053 22 57 21.56 -27 24 33.6          18.6 VrER032E12
         K12R06N `C2012 09 11.78776522 57 07.89 -27 18 17.5          18.7 RuER032D90
         K12R06N `C2012 09 11.79334722 57 06.93 -27 17 54.9          18.5 RuER032D90
         K12R06N `C2012 09 11.79888422 57 06.16 -27 17 29.8          18.6 RuER032D90
         K12R06N KC2012 09 11.87874 22 56 58.36 -27 13 05.2          19.0 VuER032595
         K12R06N KC2012 09 11.89766 22 56 55.34 -27 11 48.4                uER032595
         K12R06N |C2012 09 11.97680 22 56 46.12 -27 05 18.7          18.6 VuER032807
         K12R06N |C2012 09 11.97911 22 56 45.79 -27 05 09.9          18.7 VuER032807
         K12R06N |C2012 09 11.98142 22 56 45.41 -27 05 00.5          18.8 VuER032807
         K12R06N KC2012 09 12.01207 22 56 38.22 -27 03 51.6          18.7 VuER032954
         K12R06N KC2012 09 12.01775 22 56 37.26 -27 03 28.9          18.4 VuER032954
         K12R06N KC2012 09 12.02354 22 56 36.29 -27 03 05.2          18.7 VuER032954
         K12R06N KC2012 09 12.02928 22 56 35.38 -27 02 41.9          18.7 VuER032954
         K12R06N KC2012 09 12.03637 22 56 34.24 -27 02 12.8          18.7 VuER032954
         K12R06N KC2012 09 12.16889 22 56 15.35 -26 52 30.8          18.7 VuER032I48
         K12R06N KC2012 09 12.18113 22 56 13.48 -26 51 41.6                uER032I48
         K12R06N KC2012 09 12.18725 22 56 12.48 -26 51 16.9                uER032I48
         K12R06N KC2012 09 12.20979822 56 10.11 -26 50 39.7          18.5 VrER032H21
         K12R06N KC2012 09 12.21484022 56 09.31 -26 50 20.2          18.4 VrER032H21
         K12R06N KC2012 09 12.21935622 56 08.59 -26 50 02.3          18.6 VrER032H21
         K12R06N QC2012 09 12.43748 22 55 40.83 -26 34 51.4          18.3 VrER032E12
         K12R06N QC2012 09 12.44120 22 55 40.28 -26 34 37.6          18.3 VrER032E12
         K12R06N  C2012 09 12.55446 22 55 23.01 -26 27 25.3          18.7 VoER032E23
         K12R06N  C2012 09 12.55993 22 55 22.18 -26 27 03.4          18.4 VoER032E23
         K12R06N  C2012 09 12.56252 22 55 21.82 -26 26 53.4          18.9 VoER032E23
         K12R06N  C2012 09 12.57531 22 55 20.75 -26 26 53.5          18.4 RoER032300
         K12R06N  C2012 09 12.58114 22 55 19.94 -26 26 30.6          18.5 RoER032300
         K12R06N  C2012 09 12.58310 22 55 19.58 -26 26 23.8          18.5 RoER032300
         K12R06N  C2012 09 12.58507 22 55 19.32 -26 26 15.9          18.6 RoER032300
         K12R06N  C2012 09 12.61864 22 55 14.20 -26 24 08.4          18.6 VuER032900
         K12R06N  C2012 09 12.62578 22 55 13.03 -26 23 41.4          18.8 VuER032900
         K12R06N  C2012 09 12.63291 22 55 12.03 -26 23 14.3          18.7 VuER032900
         K12R06N QC2012 09 12.65581 22 55 07.98 -26 20 58.9          18.5 VrER032E12
         K12R06N QC2012 09 12.65723 22 55 07.78 -26 20 52.9          18.6 VrER032E12
         K12R06N KC2012 09 12.96853 22 54 30.86 -26 02 21.7          18.6 RtER032J04
         K12R06N KC2012 09 12.97028 22 54 30.60 -26 02 15.3          18.6 RtER032J04
         K12R06N KC2012 09 12.97202 22 54 30.36 -26 02 08.9          18.6 RtER032J04
         K12R06N KC2012 09 13.02168 22 54 25.18 -25 58 19.0          18.6 VvER032I39
         K12R06N KC2012 09 13.03661 22 54 23.19 -25 57 26.9          18.8 VvER032I39
         K12R06N KC2012 09 13.08705 22 54 16.16 -25 54 27.1          18.8 VvER032I39
         K12R06N |C2012 09 13.11769 22 54 12.51 -25 52 40.6          19.0 VuER032807
         K12R06N |C2012 09 13.12095 22 54 12.07 -25 52 29.0          19.2 VuER032807
         K12R06N |C2012 09 13.12407 22 54 11.63 -25 52 17.8          19.2 VuER032807
         K12R06N |C2012 09 13.12755 22 54 11.14 -25 52 05.5          19.3 VuER032807
         K12R06N |C2012 09 13.13091 22 54 10.67 -25 51 53.6          19.3 VuER032807
         K12R06N  C2012 09 13.27355 22 53 52.95 -25 44 08.8          18.7 RoER032926
         K12R06N  C2012 09 13.28511 22 53 51.38 -25 43 28.1          18.3 RoER032926
         K12R06N  C2012 09 13.29403 22 53 50.15 -25 42 56.8          18.5 RoER032926
         K12R06N QC2012 09 13.45839 22 53 32.89 -25 32 37.3          18.7 VrER032E12
         K12R06N QC2012 09 13.46327 22 53 32.25 -25 32 20.7          18.6 VrER032E12
         K12R06N QC2012 09 13.71397 22 52 59.85 -25 18 01.9          19.1 VrER032E12
         K12R06N QC2012 09 13.71711 22 52 59.52 -25 17 51.0          18.9 VrER032E12
         K12R06N KC2012 09 13.96126 22 52 36.24 -25 05 07.0          18.8 RtER032J04
         K12R06N KC2012 09 13.96300 22 52 36.03 -25 05 01.4          18.8 RtER032J04
         K12R06N KC2012 09 13.96474 22 52 35.81 -25 04 55.8          18.8 RtER032J04
         K12R06N |C2012 09 13.98421 22 52 35.39 -25 03 04.1          19.0 VuER032807
         K12R06N |C2012 09 13.98527 22 52 35.26 -25 03 00.9          19.0 VuER032807
         K12R06N |C2012 09 13.98755 22 52 35.00 -25 02 53.5          19.1 VuER032807
    
    Observer details:
    300 Bisei Spaceguard Center--BATTeRS.  Observers A. Asami, S. Okumura.  1.0-m
        f/3.0 reflector + CCD.
    595 Farra d'Isonzo.  Observers E. Pettarin, M. Vivona.  Measurer E. Pettarin.
        0.40-m f/4.5 reflector + CCD.
    807 Cerro Tololo.  Observers T. Linder, R. Holmes, R. Sampson.  0.41-m f/11
        Ritchey-Chretien + CCD.
    900 Moriyama.  Observer Y. Ikari.  0.26-m f/7.0 reflector + CCD.
    926 Tenagra II Observatory.  Observers M. Schwartz, P. R. Holvorcem.  0.81-m
        f/7 Ritchey-Chretien + CCD.
    954 Teide Observatory.  Observer N. D. Diaz.  0.26-m f/11.6 reflector + CCD.
    D90 RAS Observatory, Moorook.  Observer K. Hills.  0.41-m f/9 Ritchey-Chretien
        + CCD.
    E12 Siding Spring Survey.  Observer R. H. McNaught.  Measurers A. Boattini,
        E. J. Christensen, A. R. Gibbs, A. D. Grauer, R. E. Hill, R. A. Kowalski,
        S. M. Larson, R. H. McNaught.  0.5-m Uppsala Schmidt + CCD.
    E23 Arcadia.  Observer A. Hidas.  0.35-m Schmidt-Cassegrain + CCD.
    H21 Astronomical Research Observatory, Westfield.  Observer R. Holmes.
        Measurers L. Buzzi, H. Devore, S. Foglia, T. Vorobjov.  0.61-m f/4.0
        astrograph + CCD.
    I39 Observatorio Cruz del Sur, San Justo.  Observer A. Chapman.  0.20-m f/4
        reflector + CCD.
    I48 Observatorio El Catalejo, Santa Rosa.  Observer J. Spagnotto.  0.20-m f/5
        reflector + CCD.
    J04 ESA Optical Ground Station, Tenerife.  Observer D. Abreu.  Measurers
        D. Koschny, M. Busch, A. Knoefel, E. Schwab.  1.0-m f/4.4 reflector + CCD.
    
    Orbital elements:
    2012 RN6                                                 Earth MOID = 0.0537 AU
    Epoch 2012 Sept. 30.0 TT = JDT 2456200.5                MPC
    M  38.47215              (2000.0)            P               Q
    n   0.46592597     Peri.  195.16355     -0.49561624     +0.86760508
    a   1.6478769      Node    45.14586     -0.79083601     -0.43159408
    e   0.6528221      Incl.    3.26081     -0.35908626     -0.24695744
    P   2.12           H   21.1           G   0.15           U   7
    Residuals in seconds of arc
    120911 E12  0.1+  0.0     120912 I48  0.5+  0.8-    120913 I39  0.0   1.0+
    120911 E12  0.0   0.1+    120912 I48  0.1+  0.7-    120913 I39  0.7+  0.0
    120911 E12  0.3-  0.3+    120912 H21  0.1+  0.4+    120913 I39  0.2+  0.1+
    120911 E12  0.2-  0.0     120912 H21  0.0   0.1-    120913 807  0.1-  0.1-
    120911 E12  0.0   0.1+    120912 H21  0.1-  0.2-    120913 807  0.1+  0.0
    120911 E12  0.1-  0.1+    120912 E12  0.1+  0.2+    120913 807  0.0   0.1+
    120911 E12  0.2+  0.3+    120912 E12  0.2+  0.1-    120913 807  0.0   0.0
    120911 E12  0.2+  0.3-    120912 E23  0.3-  0.3-    120913 807  0.1-  0.0
    120911 D90  0.2+  0.0     120912 E23  0.4-  0.7+    120913 926  0.3-  0.4+
    120911 D90  1.0-  1.3-    120912 E23  0.1+  0.8+    120913 926  0.1-  0.3+
    120911 D90  0.1+  0.0     120912 300  0.5-  0.4-    120913 926  0.2-  0.1+
    120911 595  0.5-  0.2-    120912 300  0.4+  0.4+    120913 E12  0.0   0.0
    120911 595  0.3+  1.0-    120912 300  0.5-  0.3-    120913 E12  0.1-  0.0
    120911 807  0.0   0.2-    120912 300  0.0   0.2+    120913 E12  0.4-  0.1-
    120911 807  0.3+  0.6-    120912 900  0.5+  0.1+    120913 E12  0.3+  0.0
    120911 807  0.1-  0.4-    120912 900  0.8-  0.1-    120913 J04  0.1-  0.0
    120912 954  0.1+  0.3+    120912 900  0.0   0.2-    120913 J04  0.1-  0.0
    120912 954  0.2-  0.1-    120912 E12  0.1+  0.2-    120913 J04  0.1-  0.0
    120912 954  0.4-  0.0     120912 E12  0.3+  0.3+    120913 807  0.2+  0.1-
    120912 954  0.0   0.0     120912 J04  0.1+  0.1+    120913 807  0.0   0.3-
    120912 954  0.4+  0.2+    120912 J04  0.1-  0.1+    120913 807  0.1+  0.1-
    120912 I48  0.6-  1.0-    120912 J04  0.0   0.2+
    
    Ephemeris:
    2012 RN6                 a,e,i = 1.65, 0.65, 3                   q = 0.5721
    Date    TT    R. A. (2000) Decl.     Delta      r     Elong.  Phase     V
    2012 08 15    09 55 17.6 -04 27 02   0.1741  0.8500    18.9   157.3    27.1
    ...
    2012 08 30    03 55 44.2 -66 17 39   0.05529 1.0227   102.1    74.9    17.5
    ...
    2012 09 07    23 16 06.1 -35 06 27   0.1195  1.1136   150.8    26.2    17.9
    ...
    2012 09 13    22 54 26.0 -25 59 53   0.1871  1.1803   156.6    19.8    18.8
    2012 09 14    22 52 31.2 -25 02 28   0.1990  1.1913   156.7    19.5    19.0
    2012 09 15    22 50 52.1 -24 10 47   0.2109  1.2022   156.6    19.4    19.1
    ...
    2012 09 21    22 44 40.8 -20 21 54   0.2854  1.2669   154.1    20.2    19.9
    ...
    2012 09 29    22 42 03.6 -17 12 56   0.3910  1.3505   148.4    22.8    20.8
    ...
    2012 10 14    22 45 19.8 -13 31 30   0.6086  1.4988   136.5    27.2    22.1
    
    A. U. Tomatic                (C) Copyright 2012 MPC           M.P.E.C. 2012-R32
    

    Read MPEC 2012-R31 Read MPEC 2012-R33


    MPEC number:

    Enter an MPEC number in one of the following forms:

    • 1997-B01 (the full form)
    • J97B01 (the packed version of the full form)
    • B01 (the abbreviated form)